Location: Aubervilles
(48.9167°N, 2.3833°E)
Time: 11:52:27
(UTC+00:00)

Cosmos 1943 Rocket - Pass Details

Date: 03 February 2023
Orbit: 811 x 844 km, 71.0° (Epoch: 29 March)

Event Time Altitude Azimuth Distance (km) Brightness Sun altitude
Rises 18:52:02 0° 335° (NNW) 3,414 5.7 -20.1°
Reaches altitude 10° 18:55:30 10° 356° (N) 2,476 4.6 -20.7°
Enters shadow 18:58:23 16° 27° (NNE) 2,071 4.0 -21.1°
